This is the latest recevied weather packets stored in our database for station/object KU9TRY. If no packets are shown the sender has not sent any weather packets the latest 10 day(s).
| Time | Temp. | Humidity | Pressure | Rain* | Wind** | Luminosity | Snow |
|---|---|---|---|---|---|---|---|
| 1787626366 | 18.89° C | 91% | 1018.3 hPa | 0 mm | - | 0 W/m² | - |
| 1787626064 | 18.89° C | 90% | 1018.3 hPa | 0 mm | - | 0 W/m² | - |
| 1787625761 | 19.44° C | 90% | 1018.2 hPa | 0 mm | - | 0 W/m² | - |
| 1787625456 | 19.44° C | 89% | 1018.3 hPa | 0 mm | - | 0 W/m² | - |
| 1787625153 | 19.44° C | 89% | 1018.2 hPa | 0 mm | - | 0 W/m² | - |
| 1787624849 | 19.44° C | 88% | 1018.2 hPa | 0 mm | - | 0 W/m² | - |
| 1787624548 | 19.44° C | 88% | 1018.3 hPa | 0 mm | - | 0 W/m² | - |
| 1787624244 | 19.44° C | 88% | 1018 hPa | 0 mm | - | 0 W/m² | - |
| 1787623939 | 20° C | 88% | 1018.1 hPa | 0 mm | - | 0 W/m² | - |
| 1787623638 | 20° C | 87% | 1018 hPa | 0 mm | - | 0 W/m² | - |
| 1787623334 | 19.44° C | 87% | 1018 hPa | 0 mm | - | 0 W/m² | - |
| 1787623032 | 19.44° C | 87% | 1017.9 hPa | 0 mm | - | 0 W/m² | - |
| 1787622729 | 20° C | 86% | 1018.1 hPa | 0 mm | - | 0 W/m² | - |
| 1787622424 | 20° C | 86% | 1017.8 hPa | 0 mm | - | 0 W/m² | - |
| 1787622120 | 20° C | 83% | 1017.8 hPa | 0 mm | - | 0 W/m² | - |
| 1787621814 | 20.56° C | 82% | 1017.7 hPa | 0 mm | - | 0 W/m² | - |
| 1787621509 | 20.56° C | 82% | 1017.5 hPa | 0 mm | - | 0 W/m² | - |
| 1787621205 | 20.56° C | 80% | 1017.5 hPa | 0 mm | - | 0 W/m² | - |
| 1787620901 | 20.56° C | 81% | 1017.4 hPa | 0 mm | - | 0 W/m² | - |
| 1787620601 | 20.56° C | 79% | 1017.5 hPa | 0 mm | - | 0 W/m² | - |
| 1787620297 | 21.11° C | 77% | 1017.2 hPa | 0 mm | - | 0 W/m² | - |
| 1787619992 | 21.11° C | 76% | 1017.4 hPa | 0 mm | - | 0 W/m² | - |
| 1787619687 | 21.11° C | 76% | 1017.1 hPa | 0 mm | - | 0 W/m² | - |
| 1787619382 | 21.67° C | 72% | 1017 hPa | 0 mm | - | 0 W/m² | - |
| 1787619082 | 21.67° C | 71% | 1016.9 hPa | 0 mm | - | 0 W/m² | - |
* Rain latest hour (hover to see other rain measurements)
** Current wind speed in m/s (hover to see current wind gust speed)